Romeoville, IL

7:40 PM CST on January 16, 2018 (GMT -0600)
Lewis University

Weather History for KLOT - April, 2014

Change the Weather History Date:

Friday, April 4, 2014

  Actual Average Record
Temperature  
Mean Temperature 41 °F 46 °F  
Max Temperature 47 °F 56 °F 76 °F (2005)
Min Temperature 35 °F 36 °F 20 °F (1995)
Degree Days  
Heating Degree Days 24 19  
Month to date heating degree days 95 78  
Since 1 July heating degree days 6749 5623  
Cooling Degree Days 0 0  
Month to date cooling degree days 0 0  
Year to date cooling degree days 0 0  
Moisture  
Dew Point 35 °F    
Average Humidity 85    
Maximum Humidity 100    
Minimum Humidity 63    
Precipitation  
Precipitation T in 0.10 in 1.46 in (2003)
Month to date precipitation 1.53 0.41  
Year to date precipitation 8.50 6.89  
Snow  
Snow 0.00 in 0.00 in T in (2016)
Month to date snowfall 0.0 0.1  
Since 1 July snowfall 75.7 31.9  
Snow Depth 0.00 in    
Sea Level Pressure  
Sea Level Pressure 29.67 in    
Wind  
Wind Speed 15 mph (West)    
Max Wind Speed 31 mph    
Max Gust Speed 39 mph    
Visibility 7 miles    
Events Fog    
T = Trace of Precipitation, MM = Missing Value Source: NWS Daily Summary

Daily Weather History Graph

Daily Weather History Graph

Search for Another Location

Airport or City:

Trip Planner

Search our weather history database for the weather conditions in past years. The results will help you decide how hot, cold, wet, or windy it might be!

Date:

Astronomy

Apr. 04, 2014 Rise Set
Actual Time 6:30 AM CDT 7:21 PM CDT
Civil Twilight 6:02 AM CDT 7:49 PM CDT
Nautical Twilight 5:28 AM CDT 8:22 PM CDT
Astronomical Twilight 4:54 AM CDT 8:57 PM CDT
Moon 9:44 AM CDT (4/4) No Moon Set
Length of Visible Light 13h 47m
Length of Day
12h 50m
Waxing Crescent, 25% of the Moon is Illuminated
Apr 4
Waxing Crescent
Apr 7
First Quarter
Apr 15
Full
Apr 22
Last Quarter
Apr 29
New

Hourly Weather History & Observations

Time (CDT) Temp. Windchill Dew Point Humidity Pressure Visibility Wind Dir Wind Speed Gust Speed Precip Events Conditions
12:15 AM 39.6 °F 33.5 °F 39.6 °F 100% 29.67 in 4.0 mi SE 9.2 mph - N/A   Overcast
12:35 AM 39.6 °F 32.5 °F 39.6 °F 100% 29.64 in 3.0 mi ESE 11.5 mph - N/A   Overcast
12:55 AM 39.6 °F 35.4 °F 39.6 °F 100% 29.67 in 2.5 mi ESE 5.8 mph - N/A   Overcast
1:15 AM 39.6 °F 32.5 °F 39.6 °F 100% 29.64 in 3.0 mi ESE 11.5 mph - N/A   Overcast
1:35 AM 39.2 °F 33.0 °F 39.2 °F 100% 29.63 in 3.0 mi ESE 9.2 mph - N/A   Overcast
1:55 AM 39.4 °F 33.8 °F 39.4 °F 100% 29.64 in 2.5 mi ESE 8.1 mph - N/A   Overcast
2:15 AM 39.6 °F 33.5 °F 39.6 °F 100% 29.59 in 2.0 mi East 9.2 mph - N/A   Overcast
2:35 AM 39.6 °F 32.5 °F 39.6 °F 100% 29.56 in 1.5 mi ESE 11.5 mph - N/A   Overcast
2:55 AM 40.1 °F 33.6 °F 40.1 °F 100% 29.56 in 1.5 mi ESE 10.4 mph - N/A   Overcast
3:15 AM 40.3 °F 34.9 °F 40.3 °F 100% 29.56 in 2.0 mi SE 8.1 mph - N/A   Overcast
3:35 AM 40.5 °F 35.1 °F 40.5 °F 100% 29.54 in 2.0 mi SE 8.1 mph - N/A   Overcast
3:55 AM 41.0 °F 35.2 °F 41.0 °F 100% 29.51 in 1.5 mi ESE 9.2 mph - N/A   Overcast
4:15 AM 41.0 °F 34.7 °F 41.0 °F 100% 29.49 in 1.0 mi SE 10.4 mph - N/A   Overcast
4:35 AM 41.0 °F 34.3 °F 41.0 °F 100% 29.48 in 0.8 mi SE 11.5 mph - N/A   Overcast
4:55 AM 41.0 °F 34.7 °F 41.0 °F 100% 29.48 in 0.5 mi SE 10.4 mph - N/A Fog Fog
5:15 AM 41.2 °F 35.5 °F 41.2 °F 100% 29.48 in 0.8 mi SSE 9.2 mph - N/A   Overcast
5:35 AM 41.2 °F 35.5 °F 41.2 °F 100% 29.49 in 1.2 mi South 9.2 mph - N/A   Overcast
5:55 AM 41.0 °F 35.8 °F 41.0 °F 100% 29.49 in 0.8 mi South 8.1 mph - N/A   Overcast
6:15 AM 41.0 °F 34.7 °F 41.0 °F 100% 29.48 in 1.5 mi South 10.4 mph - N/A   Overcast
6:35 AM 41.2 °F 35.5 °F 41.2 °F 100% 29.49 in 1.2 mi SW 9.2 mph - N/A   Overcast
6:55 AM 41.9 °F 35.9 °F 41.9 °F 100% 29.50 in 2.0 mi SW 10.4 mph - N/A   Overcast
7:15 AM 42.8 °F 36.2 °F 42.8 °F 100% 29.49 in 1.0 mi SW 12.7 mph 17.3 mph N/A   Overcast
7:35 AM 43.9 °F 36.5 °F 43.9 °F 100% 29.50 in 2.5 mi WSW 16.1 mph 20.7 mph N/A   Overcast
7:55 AM 44.6 °F 38.4 °F 44.6 °F 100% 29.49 in 4.0 mi West 12.7 mph - N/A   Overcast
8:15 AM 46.0 °F 38.5 °F 46.0 °F 100% 29.49 in 7.0 mi West 19.6 mph 28.8 mph N/A   Overcast
8:35 AM 46.4 °F 38.7 °F 45.7 °F 97% 29.49 in 10.0 mi West 20.7 mph 27.6 mph N/A   Overcast
8:55 AM 45.3 °F 36.3 °F 44.2 °F 96% 29.50 in 5.0 mi West 26.5 mph 33.4 mph N/A   Overcast
9:15 AM 43.2 °F 33.4 °F 43.2 °F 100% 29.51 in 3.0 mi West 26.5 mph 34.5 mph N/A   Light Drizzle
9:35 AM 42.6 °F 32.6 °F 41.2 °F 95% 29.51 in 7.0 mi West 26.5 mph 38.0 mph N/A   Overcast
9:55 AM 41.5 °F 31.0 °F 41.5 °F 100% 29.52 in 3.0 mi West 27.6 mph 31.1 mph N/A   Light Drizzle
10:15 AM 39.9 °F 29.2 °F 39.9 °F 100% 29.54 in 5.0 mi West 25.3 mph 32.2 mph N/A   Overcast
10:35 AM 39.2 °F 28.5 °F 39.2 °F 100% 29.55 in 10.0 mi West 24.2 mph 33.4 mph N/A   Overcast
10:55 AM 39.2 °F 28.7 °F 39.0 °F 99% 29.55 in 10.0 mi West 23.0 mph 28.8 mph N/A   Overcast
11:15 AM 39.7 °F 30.3 °F 37.4 °F 91% 29.55 in 10.0 mi West 19.6 mph 29.9 mph N/A   Overcast
11:35 AM 39.6 °F 29.0 °F 34.7 °F 83% 29.56 in 10.0 mi West 24.2 mph 35.7 mph N/A   Overcast
11:55 AM 39.4 °F 27.5 °F 32.9 °F 78% 29.57 in 10.0 mi West 31.1 mph 36.8 mph N/A   Overcast
12:15 PM 39.0 °F 28.3 °F 33.3 °F 80% 29.58 in 10.0 mi West 24.2 mph 33.4 mph N/A   Overcast
12:35 PM 39.2 °F 27.6 °F 32.0 °F 75% 29.59 in 10.0 mi West 28.8 mph 39.1 mph N/A   Overcast
12:55 PM 38.3 °F 27.1 °F 32.0 °F 78% 29.60 in 10.0 mi West 25.3 mph 38.0 mph N/A   Overcast
1:15 PM 39.0 °F 27.4 °F 31.8 °F 75% 29.62 in 10.0 mi West 28.8 mph 36.8 mph N/A   Overcast
1:35 PM 38.7 °F 27.3 °F 31.6 °F 76% 29.63 in 10.0 mi West 26.5 mph 32.2 mph N/A   Overcast
1:55 PM 38.3 °F 27.6 °F 31.3 °F 76% 29.64 in 10.0 mi West 23.0 mph 33.4 mph N/A   Overcast
2:15 PM 38.7 °F 27.5 °F 31.3 °F 75% 29.65 in 10.0 mi West 25.3 mph 34.5 mph N/A   Overcast
2:35 PM 38.7 °F 27.5 °F 30.9 °F 74% 29.66 in 10.0 mi West 25.3 mph 35.7 mph N/A   Overcast
2:55 PM 37.8 °F 26.1 °F 30.6 °F 75% 29.68 in 10.0 mi West 26.5 mph 33.4 mph N/A   Overcast
3:15 PM 37.6 °F 26.3 °F 30.2 °F 75% 29.68 in 10.0 mi West 24.2 mph 33.4 mph N/A   Overcast
3:35 PM 37.8 °F 26.3 °F 29.7 °F 73% 29.70 in 10.0 mi West 25.3 mph 35.7 mph N/A   Overcast
3:55 PM 37.6 °F 25.6 °F 29.3 °F 72% 29.71 in 10.0 mi West 27.6 mph 34.5 mph N/A   Overcast
4:15 PM 37.4 °F 26.1 °F 29.7 °F 74% 29.73 in 10.0 mi West 24.2 mph 29.9 mph N/A   Overcast
4:35 PM 37.4 °F 26.1 °F 28.4 °F 70% 29.74 in 10.0 mi West 24.2 mph 31.1 mph N/A   Overcast
4:55 PM 37.0 °F 25.9 °F 28.8 °F 72% 29.76 in 10.0 mi West 23.0 mph 31.1 mph N/A   Overcast
5:15 PM 37.0 °F 26.7 °F 28.6 °F 71% 29.77 in 10.0 mi West 19.6 mph 32.2 mph N/A   Overcast
5:35 PM 37.2 °F 26.7 °F 28.2 °F 70% 29.79 in 10.0 mi West 20.7 mph 27.6 mph N/A   Overcast
5:55 PM 37.2 °F 26.7 °F 27.9 °F 69% 29.80 in 10.0 mi WNW 20.7 mph 31.1 mph N/A   Overcast
6:15 PM 37.0 °F 26.7 °F 27.5 °F 68% 29.82 in 10.0 mi West 19.6 mph 29.9 mph N/A   Overcast
6:35 PM 37.0 °F 27.0 °F 27.7 °F 69% 29.83 in 10.0 mi West 18.4 mph 24.2 mph N/A   Overcast
6:55 PM 36.7 °F 26.3 °F 27.7 °F 70% 29.84 in 10.0 mi West 19.6 mph 26.5 mph N/A   Overcast
7:15 PM 36.5 °F 25.7 °F 27.9 °F 71% 29.85 in 10.0 mi West 20.7 mph 26.5 mph N/A   Overcast
7:35 PM 36.5 °F 25.2 °F 28.0 °F 71% 29.87 in 10.0 mi WNW 23.0 mph 26.5 mph N/A   Overcast
7:55 PM 36.3 °F 26.4 °F 28.0 °F 72% 29.88 in 10.0 mi WNW 17.3 mph 25.3 mph N/A   Overcast
8:15 PM 36.3 °F 26.4 °F 28.2 °F 72% 29.90 in 10.0 mi WNW 17.3 mph - N/A   Overcast
8:35 PM 36.1 °F 26.5 °F 28.4 °F 73% 29.91 in 10.0 mi WNW 16.1 mph 24.2 mph N/A   Overcast
8:55 PM 36.5 °F 27.0 °F 28.4 °F 72% 29.92 in 10.0 mi WNW 16.1 mph 23.0 mph N/A   Overcast
9:15 PM 36.5 °F 27.4 °F 28.8 °F 74% 29.93 in 10.0 mi WNW 15.0 mph 23.0 mph N/A   Overcast
9:35 PM 36.5 °F 27.4 °F 28.6 °F 73% 29.95 in 10.0 mi WNW 15.0 mph 20.7 mph N/A   Overcast
9:55 PM 36.5 °F 26.7 °F 28.2 °F 72% 29.95 in 10.0 mi WNW 17.3 mph 23.0 mph N/A   Overcast
10:15 PM 36.7 °F 26.3 °F 27.9 °F 70% 29.97 in 10.0 mi NW 19.6 mph 26.5 mph N/A   Overcast
10:35 PM 36.1 °F 25.5 °F 24.8 °F 63% 29.98 in 10.0 mi NNW 19.6 mph 25.3 mph N/A   Overcast
10:55 PM 35.8 °F 26.9 °F 25.2 °F 65% 29.99 in 10.0 mi NNW 13.8 mph - N/A   Overcast
11:15 PM 35.6 °F 25.9 °F 25.3 °F 66% 30.00 in 10.0 mi NW 16.1 mph 19.6 mph N/A   Overcast
11:35 PM 35.6 °F 25.5 °F 24.8 °F 65% 30.01 in 10.0 mi NNW 17.3 mph 20.7 mph N/A   Mostly Cloudy
11:55 PM 35.4 °F 26.4 °F 26.2 °F 69% 30.02 in 10.0 mi NNW 13.8 mph 19.6 mph N/A   Overcast